Regional Weather Roundup
Issued by NWS Wakefield, VA

Home | Current Version | Previous Version | Text Only | Print | Product List | Glossary Off
Versions: 1 2 3 4 5 6 7 8 9 10 11 12 13 14 15 16 17 18 19 20 21 22 23 24 25 26 27 28 29 30 31 32 33 34 35 36 37 38 39 40 41 42 43 44 45 46 47 48 49 50

000
ASUS41 KAKQ 031514
RWRAKQ

REGIONAL WEATHER ROUNDUP
NATIONAL WEATHER SERVICE WAKEFIELD VA
1100 AM EDT SUN MAY 03 2015

Note: "fair" indicates few or no clouds below 12,000 feet with no
significant weather and/or obstructions to visibility. * = Denotes
station may not report precipitation (e.g., rain,snow,etc.),
thunder or fog.

VAZ042-051-052>054-056-031600-
NORTHERN VIRGINIA

CITY           SKY/WX    TMP DP  RH WIND       PRES   REMARKS
WASH NATIONAL  MOSUNNY   77  44  30 N6        30.14R
DULLES         MOSUNNY   74  41  30 VRB5      30.14R
FORT BELVOIR   SUNNY     76  42  30 NW5       30.13S
QUANTICO       MOSUNNY   67  53  61 S5        30.15R
FREDERICKSBRG* SUNNY     76  43  30 CALM      30.13S
STAFFORD*      SUNNY     74  39  27 N7        30.18S
WARRENTON      SUNNY     76  44  31 CALM      30.14S
CULPEPER*      NOT AVBL
MANASSAS*      SUNNY     73  43  33 CALM      30.14S
LEESBURG*      SUNNY     73  45  35 W3        30.14S
WINCHESTER     MOSUNNY   72  37  28 S8        30.15S
FRONT ROYAL*   PTSUNNY   68  45  42 SW8       30.15S
LURAY*         CLOUDY    68  50  52 CALM      30.17S
$$

VAZ048-049-060>072-079>083-031600-
CENTRAL AND SOUTH CENTRAL VIRGINIA

CITY           SKY/WX    TMP DP  RH WIND       PRES   REMARKS
RICHMOND       MOSUNNY   77  42  28 NW6       30.15R
CHESTERFIELD*  FAIR      75  45  33 NW3       30.17R
PETERSBURG*    SUNNY     76  41  28 NW5       30.16S
HANOVER        SUNNY     76  41  28 VRB5      30.16S
TAPPAHANNOCK*  SUNNY     74  37  25 CALM      30.15R
QUINTON*       FAIR      73  46  36 W6        30.15R
CHARLOTTSVILLE SUNNY     72  43  35 S5        30.15S
GORDONSVILLE*  FAIR      73  43  33 CALM      30.15S
ORANGE*        SUNNY     73  45  35 CALM      30.16S
LOUISA*        MOSUNNY   75  43  31 NE6       30.15R
BUMPASS*       FAIR      73  42  32 CALM      30.15S
FARMVILLE*     SUNNY     76  41  28 W3        30.15S
CREWE*         FAIR      75  43  31 NW5       30.16S
FORT PICKETT*  FAIR      73  47  38 W5        30.16S
CHASE CITY*    FAIR      72  51  47 W5        30.18S
CLARKSVILLE*   FAIR      70  48  46 CALM      30.18S
SOUTH HILL*    SUNNY     70  49  47 CALM      30.23S
LAWRENCEVILLE* FAIR      72  51  48 W3        30.17R
EMPORIA*       SUNNY     72  50  46 W5        30.18R
$$

VAZ088>098-031600-
SOUTHEAST VIRGINIA

CITY           SKY/WX    TMP DP  RH WIND       PRES   REMARKS
NORFOLK        SUNNY     71  46  40 W8        30.15R
VIRGINIA BEACH SUNNY     75  49  39 W10       30.15R
NORFOLK NAVAL  SUNNY     73  51  46 W6        30.17R
WEST POINT*    SUNNY     75  45  34 SW6       30.16S
SALUDA*        FAIR      69  48  47 NW6       30.13S
NEWPORT NEWS   SUNNY     76  50  40 W8        30.15R
LANGLEY AFB    SUNNY     73  49  42 VRB7      30.13R
FORT EUSTIS    SUNNY     71  50  47 W7        30.13S
WILLIAMSBURG*  SUNNY     79  52  38 NW7       30.16R
HR EXEC AP*    FAIR      73  52  46 W7        30.17R
FRANKLIN*      SUNNY     71  51  50 SW5       30.17S
WAKEFIELD      SUNNY     76  49  38 VRB5      30.16R
$$

VAZ020-022-025-037-045-031600-
WEST CENTRAL AND SOUTHWEST VIRGINIA

CITY           SKY/WX    TMP DP  RH WIND       PRES   REMARKS
STAUNTON*      SUNNY     70  43  37 S6        30.20S
WAYNESBORO*    PTSUNNY   68  43  39 W5        30.19S
HOT SPRINGS VA MOSUNNY   60  31  33 W5        30.24R
LYNCHBURG      SUNNY     72  41  32 VRB3      30.20R
DANVILLE       SUNNY     73  46  38 SW8       30.19S
SOUTH BOSTON*  FAIR      70  47  42 MISG      30.19S
MARTINSVILLE   SUNNY     72  46  39 CALM      30.22S
ROANOKE        MOSUNNY   69  40  34 W6        30.22S
BLACKSBURG     SUNNY     63  44  51 CALM      30.26R
DUBLIN*        SUNNY     66  42  40 CALM      30.24S
MARION*        SUNNY     66  37  35 NE5       30.25S
HILLSVILLE*    SUNNY     63  41  44 SW3       30.24R
RICHLANDS*     FAIR      64   8  11 NW6       30.23S
WISE*          MOSUNNY   66  34  30 W7        30.23S
ABINGDON*      SUNNY     68  40  35 CALM      30.22S
$$

MDZ021>025-VAZ099-100-031600-
SOUTHERN MARYLAND AND THE DELMARVA PENINSULA

CITY           SKY/WX    TMP DP  RH WIND       PRES   REMARKS
PATUXENT RIVER MOSUNNY   71  45  39 NW8       30.12S
BAY BRIDGE APT   N/A    N/A N/A N/A NW3       30.12S
LEONARDTOWN    SUNNY     72  41  33 N3        30.14S
DOVER          SUNNY     66  55  69 NW5       30.09R
GEORGETOWN     SUNNY     70  49  47 VRB7      30.11R
EASTON         SUNNY     72  54  53 N6        30.15
CAMBRIDGE      SUNNY     72  46  40 N6        30.11S
SALISBURY      SUNNY     72  47  40 W8        30.11R
OCEAN CITY     SUNNY     62  53  72 SE7       30.11R
WALLOPS ISLAND SUNNY     72  50  45 NW10      30.12R
ACCOMACK*      SUNNY     68  52  56 W6        30.13R
$$

NCZ012>017-030>032-031600-
NORTH CENTRAL AND EASTERN NORTH CAROLINA

CITY           SKY/WX    TMP DP  RH WIND       PRES   REMARKS
ROANOKE RAPIDS FAIR      72  52  49 W7        30.18R
RALEIGH        MOSUNNY   71  51  49 VRB5      30.21R
ELIZABETH CITY SUNNY     72  53  51 W10       30.17R
AHOSKIE*       SUNNY     72  52  48 CALM      30.18S
EDENTON*       SUNNY     71  55  57 W8        30.18S
CURRITUCK*     SUNNY     72  48  43 W12       30.17R
KILL DEVIL HLS SUNNY     65  56  71 W6        30.16S
MANTEO         SUNNY     68  51  54 NW13      30.18R
CAPE HATTERAS  SUNNY     63  56  78 W6        30.18R
TARBORO*       FAIR      72  53  50 W7        30.20S
GOLDSBORO      SUNNY     72  55  53 W6        30.18S
WASHINGTON     SUNNY     71  53  53 NW7       30.20R
GREENVILLE     SUNNY     72  54  53 W6        30.21R
NEW BERN       SUNNY     75  51  43 W5        30.20S
WILMINGTON     SUNNY     74  47  38 CALM      30.20S
$$

VAZ048-031600-
ELSEWHERE

CITY           SKY/WX    TMP DP  RH WIND       PRES   REMARKS
HARRISBURG PA  MOSUNNY   72  40  31 NW6       30.11S
BALTIMORE      MOSUNNY   73  39  29 CALM      30.11R
ANNAPOLIS      SUNNY     63  52  67 SE8       30.12R
ANDREWS AFB    MOSUNNY   73  44  35 NW7       30.13R
PHILADELPHIA   MOSUNNY   69  45  41 CALM      30.11S
HENDERSON NC   SUNNY     73  44  36 W6        30.19S
GREENSBORO     MOSUNNY   71  44  37 W6        30.20R
ROCKY MOUNT    SUNNY     73  53  49 VRB7      30.20R
$$

VAZ100-031600-
MARINE

STATION/POSITION TIME  TEMP    WIND        PRES    WAVE   SWELL
                       AIR SEA DIR/SP/G            HT/PER HT/PER
                 (UTC) (F)     (DEG/KT/KT) (MB)    (FT/S) (FT/S)
BRANDYWINE LGT   1412   56 53   CALM  /  1 1019.7R
CAPE MAY NJ      1412   55 58  240/  4/  4 1019.1R
LEWES DE         1400   55 53   30/  4/  4 1019.3R
15NM E FENWICK I 1450   51 49              1019.6R   4/10
OCEAN-CITY-INLET 1412   56 53  150/  5/  7 1019.1R
WACHAPREAGUE VA  1400   69 58  280/  3/  7 1019.8R
THOMAS POINT MD  1500   60 57   90/  3/  4 1020.7R
GOOSES REEF MD   1500   62 60                N/A     0
COVE POINT MD    1400   63     350/ 10/ 12 1020.5R
SOLOMONS ISLAND  1412      59                N/A
BISHOPS HEAD MD  1412   62 61  290/  8/  9 1019.4R
PINEY POINT MD   1400          320/  9/ 10   N/A
CAMBRIDGE MD     1412   65 60  310/  6/  7 1019.5R
LEWISETTA VA     1400   69 61              1019.7R
RAPPAHANNOCK LGT 1400          220/  4/  5 1020.7R
YORK RVR RNG VA  1412   64     290/  9/  9 1019.7
YORKTOWN VA      1412   63 59  310/  7/  8 1020.2
JAMESTOWN VA     1500   65 63  300/  6/  6 1020.1R
DOMINION TERM VA 1400   61     330/  4/  5 1020.8R
KIPTOPEKE VA     1400      62  260/  4/  5   N/A
CHES BAY BRIDGE  1412   62 58  250/  8/  9 1020.3R
CAPE HENRY VA    1400   66     260/ 11/ 16 1019.1R
CHESAPEAKE LGHT  1400   62     280/ 11/ 11 1021.1R
WILLOUBY STN VA  1400   62     260/ 11/ 11 1021.1R
S CRANEY ISL VA  1412          300/  7/ 10 1020.7
CAPE HENRY BUOY  1428      55                N/A     4/11   2/11
1ST LANDING BUOY 1500      59                N/A     2/ 6
CAPE CHARLES BUO 1426      54                N/A     4/11   3/11
OFFSHORE WE BUOY 1411      51                N/A     5/10   5/10
64NM E OF VA BCH 1450   56 61  230/  6/ 10 1020.8R   7/10   7/10
DUCK PIER NC     1418   64 53  260/  9/ 11 1020.2
44056 DUCK FRF   1411      55                N/A     5/10   3/11
OREGON INLET NC  1400   65 56  270/  7/  9 1021.2R
HATTERAS NC      1406   63 60  280/  9/ 10 1021.4R
DIAMOND SHLS NC  1450   59 59  300/  6/  6 1022.2R   5/10   5/10
CAPE LOOKOUT NC  1500   69     280/  8/  9 1022.4R
$$



USA.gov is the U.S. government's official web portal to all federal, state and local government web resources and services.